Regional Weather Roundup
Issued by NWS Upton, NY

Current Version | Previous Version | Text Only | Print | Product List | Glossary On
Versions: 1 2 3 4 5 6 7 8 9 10 11 12 13 14 15 16 17 18 19 20 21 22 23 24 25 26 27 28 29 30 31 32 33 34 35 36 37
000
ASUS41 KOKX 220205
RWROKX
REGIONAL WEATHER ROUNDUP
NATIONAL WEATHER SERVICE NEW YORK NY
1000 PM EDT TUE OCT 21 2014

NOTE: "FAIR" INDICATES FEW OR NO CLOUDS BELOW 12,000 FEET WITH NO
SIGNIFICANT WEATHER AND/OR OBSTRUCTIONS TO VISIBILITY.

NYZ071-072-176-178-NJZ106-104-220300-
NEW YORK CITY METRO AREA


CITY           SKY/WX    TMP DP  RH WIND       PRES   REMARKS
CENTRAL PARK   MOCLDY    57  54  89 VRB7      29.93S
LAGUARDIA APRT MOCLDY    59  54  83 N9        29.90R
KENNEDY INTL   MOCLDY    58  52  80 N8        29.91R
NEWARK/LIBERTY MOCLDY    57  52  83 NE9       29.89R
BRNX BOT. GARD   N/A     57  52  82 N2        29.93S
TETERBORO      LGT RAIN  57  53  86 NE7       29.89F
$$

NYZ177-179-078>081-220300-
LONG ISLAND NEW YORK

CITY           SKY/WX    TMP DP  RH WIND       PRES   REMARKS
FARMINGDALE    MOCLDY    55  53  93 N5        29.90R
ISLIP          MOCLDY    56  53  90 NE5       29.88R
SHIRLEY        CLOUDY    57  54  89 N3        29.90R
WESTHAMPTON    CLOUDY    57  54  89 E6        29.91R
MONTAUK POINT    N/A     62  58  86 NE6       29.93R
$$

NYZ052-065-067-220300-
HUDSON VALLEY

CITY           SKY/WX    TMP DP  RH WIND       PRES   REMARKS
WHITE PLAINS   MOCLDY    54  51  90 N8        29.91R
NEWBURGH       LGT RAIN  52  52 100 VRB3      29.95R
MONTGOMERY     LGT RAIN  52  50  93 NE12      29.93S
POUGHKEEPSIE   LGT RAIN  53  51  93 NE3       29.95R
ALBANY         LGT RAIN  51  47  86 N7        30.00R
$$

NJZ001-105-106-008-010-013-015-019>022-104-220300-
NEW JERSEY

CITY           SKY/WX    TMP DP  RH WIND       PRES   REMARKS
NEWARK/LIBERTY MOCLDY    57  52  83 NE9       29.89R
TETERBORO      LGT RAIN  57  53  86 NE7       29.89F
CALDWELL       MOCLDY    54  50  86 CALM      29.91R
MORRISTOWN     CLOUDY    52  52 100 N5        29.91R
SOMERVILLE     PTCLDY    53  50  89 NW5       29.89R
SUSSEX         CLOUDY    54  49  83 NE8       29.93R
ANDOVER          N/A     52  50  93 NE6       29.92R
TRENTON        CLOUDY    57  49  74 NE9       29.88R
MILLVILLE      MOCLDY    51  49  92 CALM      29.86R
ATLANTIC CITY  MOCLDY    52  50  93 NW3       29.87R
WRIGHTSTOWN    MOCLDY    55  54  99 N6        29.86R
TOMS RIVER     PTCLDY    54  52  94 CALM      29.88R
BELMAR         PTCLDY    55  48  76 N6        29.89R
$$

PAZ047>061-062-071-220300-
EASTERN PENNSYLVANIA

CITY           SKY/WX    TMP DP  RH WIND       PRES   REMARKS
PHILADELPHIA   CLOUDY    62  50  64 NE8       29.88R
ALLENTOWN      CLOUDY    55  49  80 E5        29.91R
SCRANTON       MOCLDY    52  49  89 E5        29.92S
$$

CTZ002-004>006-009-010-012-RIZ004-006-007-MAZ004-011-015-220300-
SOUTHERN NEW ENGLAND
 IN CT

CITY           SKY/WX    TMP DP  RH WIND       PRES   REMARKS
BRADLEY INTL   CLOUDY    55  49  80 N9        29.95R
HARTFORD       CLOUDY    55  50  83 N8        29.95R
DANBURY        CLOUDY    53  30  41 CALM      29.94R
WTRBRY/OXFORD  CLOUDY    54  46  76 NE6       29.93S
BRIDGEPORT     CLOUDY    57  52  83 N12       29.92R
MERIDEN        LGT RAIN  55  50  83 NE3       29.95R
NEW HAVEN      MOCLDY    57  52  83 N12       29.92R
CHESTER        FAIR      55  54  94 N3        29.94R
GROTON         CLOUDY    58  56  93 NE6       29.92R
WILLIMANTIC    CLOUDY    58  53  84 NE8       29.95R

 IN RI

CITY           SKY/WX    TMP DP  RH WIND       PRES   REMARKS
PROVIDENCE     CLOUDY    57  55  93 N12       29.95R FOG
BLOCK ISLAND   MOCLDY    61  57  88 NE9       29.92R
WESTERLY       MOCLDY    57  56  96 NE5       29.93R

 IN MA

CITY           SKY/WX    TMP DP  RH WIND       PRES   REMARKS
BOSTON         CLOUDY    57  54  89 N12       29.97R
WORCESTER      CLOUDY    52  50  93 NE7       29.98R
WESTFIELD      CLOUDY    54  49  83 N13G18    29.96R
PROVINCETOWN   CLOUDY    57  54  88 E6        29.96R
NANTUCKET      CLEAR     57  55  93 E8        29.92R
$$

ANZ330-335-338-340-345-350-353-355-220300-
COASTAL MARINE OBSERVATIONS


STATION/POSITION TIME  SKY/WX   TEMP    WIND        PRES    VSBY  WAVE
                                AIR SEA DIR/SP/G                  HT/PER
                 (UTC)          (F)     (DEG/KT/KT) (MB)    (MI)  (FT/S)
NY HARB ENTRANCE NOT AVBL
4S FIRE IS       0200               64                N/A           3/ 7
20S FIRE ISLAND  0200            63 64   90/  8/ 10 1011.7          3/ 7
23SW MTP         0200                                 N/A           3/ 7
HUDSON CANYON    0200            63 66   30/ 10/ 12 1011.4
EXECUTION ROCKS  0200            60 63  330/  8/ 10   N/A
WESTERN LI SOUND 0200            60      30/ 10/ 12   N/A           1
CENTRAL LI SOUND 0100            62 64  100/ 10/ 14   N/A           1/ 2
EASTERN LI SOUND 0100            61 64   60/ 10/ 14   N/A
ROBBINS REEF     0200            58      20/  9/ 10 1011.0
$$


>>>>>>>>>>>>>>>>>>>>>>>>>>>> KEY <<<<<<<<<<<<<<<<<<<<<<<<<<<
>                                                          <
>     SKY/WX - SKY CONDITION/PRESENT WEATHER               <
>     TMP    - TEMPERATURE IN FAHRENHEIT                   <
>     DP     - DEWPOINT IN FAHRENHEIT                      <
>     RH     - RELATIVE HUMIDITY IN PERCENT                <
>     WIND   - DIRECTION AND SPEED IN MPH                  <
>     PRES   - MEAN SEA LEVEL PRESSURE IN INCHES OF HG     <
>     WCI    - WIND CHILL INDEX                            <
>     VSB    - VISIBILITY IN MILES                         <
>     HX     - HEAT INDEX                                  <
>     TC     - TEMPERATURE IN CELSIUS                      <
>     VRB    - VARIABLE WIND DIRECTION                     <
>                                                          <
>>>>>>>>>>>>>>>>>>>>>>>>>>>> KEY <<<<<<<<<<<<<<<<<<<<<<<<<<<





USA.gov is the U.S. government's official web portal to all federal, state and local government web resources and services.